SL-16 DEB, 22444

Orbit data source: Space-Track

SL-16 DEB, 22444 is space debris in LEO originally from a launch on Fri, 25 Dec 1992 UTC launched from the Tyuratam Missile And Space Complex (TTMTR). Debris objects in space refer to the collection of defunct objects orbiting the Earth. Examples of debris include non-operational satellites, rocket bodies, and fragments generated from explosions, collisions, or faulty payload assembly.

Loading next visibility...
Identifier
22444, 1992-093EM
Orbit
LEO
Country
Flag of CISCIS
Related business
Manufacturer
Unknown
Mission
Spacecraft
Bus & Motor
Unknown
Mass
Unknown
Launch date (UTC)
1992-12-25 (33 years ago)
Launch vehicle
Unknown
Launch site
Tyuratam Missile And Space Complex (TTMTR)
Object type
Payload
Rocket body
Debris
Shape & HBR
Unknown shape, 0.1 m
Radar Cross Section
Small (<0.1 m²)

Expand to show TLE details & history
Last TLE update: 2 days ago

TLE from 2 days ago
0 SL-16 DEB
1 22444U 92093EM  26036.15380888  .00000516  00000-0  31965-3 0  9996
2 22444  71.3195 179.2036 0076122  98.5243  81.8219 14.08171472693799
Epoch: 2026-02-05T03:41Z
TLE epoch observation values (Epoch: 2026-02-05T03:41:29.087Z)
Latitude
-1.26076°
Longitude
168.94638°
Altitude
860.789 km
Speed
7.426 km/s
True Right ascension
23h 58m 30s
True Declination
-1° 15' 12"
Sunlit
Object was in daylight at epoch
Visualization orbit readout
Latitude
Unknown
Longitude
Unknown
Altitude
Unknown
Speed
Unknown
Apparent Right ascension
Unknown
Apparent Declination
Unknown
Sunlit
N/A
Visualization observer readout
Local Sidereal Time
23:56:04
Azimuth
Unknown
Elevation
Unknown
Doppler factor
Unknown
Orbital elements
Apogee altitude
918.661 km
Perigee altitude
808.411 km
Semi-major axis
7,241.673 km
Eccentricity
0.00761
Inclination
71.3195°
RAAN
179.2036°
Arg. of periapsis
98.5243°
True anomaly
82.68646°
Mean anomaly
81.8219°
Eccentric anomaly
82.25407°
Mean motion
3.52196 °/min
Orbital period
102.22 mins
BSTAR
0.00031965
Loading maneuver chart data...
Computing Atmospheric mass density...

Documentation

Showing up to 5 results
|